NOAA 17 DEB, 48717

Orbit data source: Space-Track

NOAA 17 DEB, 48717 is space debris in SSO originally from a launch on Mon, 24 Jun 2002 UTC launched from the Air Force Western Test Range (AFWTR). Debris objects in space refer to the collection of defunct objects orbiting the Earth. Examples of debris include non-operational satellites, rocket bodies, and fragments generated from explosions, collisions, or faulty payload assembly.

Loading next visibility...
Identifier
48717, 2002-032BA
Orbit
SSO
Country
Flag of USUS
Related business
Manufacturer
Unknown
Mission
Spacecraft
Bus & Motor
Unknown
Mass
Unknown
Launch date (UTC)
2002-06-24 (23 years ago)
Launch vehicle
Unknown
Launch site
Air Force Western Test Range (AFWTR)
Object type
Payload
Rocket body
Debris
Shape & HBR
Unknown shape, 0.1 m
Radar Cross Section
Small (<0.1 m²)

Expand to show TLE details & history
Last TLE update: 19 hours ago

TLE from 19 hours ago
0 NOAA 17 DEB
1 48717U 02032BA  25348.91449086  .00006049  00000-0  14793-2 0  9992
2 48717  98.7590 329.9827 0008101  79.0991 281.1114 14.52897520248456
Epoch: 2025-12-14T21:56Z
TLE epoch observation values (Epoch: 2025-12-14T21:56:52.010Z)
Latitude
-0.00007°
Longitude
-83.05457°
Altitude
718.055 km
Speed
7.497 km/s
True Right ascension
21h 59m 55s
True Declination
0° 00' 00"
Sunlit
Object was in daylight at epoch
Visualization orbit readout
Latitude
Unknown
Longitude
Unknown
Altitude
Unknown
Speed
Unknown
Apparent Right ascension
Unknown
Apparent Declination
Unknown
Sunlit
N/A
Visualization observer readout
Local Sidereal Time
15:06:13
Azimuth
Unknown
Elevation
Unknown
Doppler factor
Unknown
Orbital elements
Apogee altitude
719.063 km
Perigee altitude
707.573 km
Semi-major axis
7,091.455 km
Eccentricity
0.00081
Inclination
98.759°
RAAN
329.9827°
Arg. of periapsis
79.0991°
True anomaly
281.02029°
Mean anomaly
281.1114°
Eccentric anomaly
281.06585°
Mean motion
3.63446 °/min
Orbital period
99.05 mins
BSTAR
0.0014793
Loading maneuver chart data...
Computing Atmospheric mass density...
Loading historical data...
Loading historical data...
Loading historical data...
Loading historical data...
Loading historical data...
Loading historical data...
Loading historical data...

Documentation

Showing up to 5 results
|